Weather History for Adana Incirlik AFB, Turkey

Change the Weather History Date:

Thursday, February 14, 2013

  Actual Average Record
Temperature  
Mean Temperature 57 °F -  
Max Temperature 67 °F 64 °F 74 °F (2014)
Min Temperature 47 °F 46 °F 33 °F (2004)
Degree Days  
Heating Degree Days 8    
Growing Degree Days 7 (Base 50)    
Moisture  
Dew Point 39 °F    
Average Humidity 52    
Maximum Humidity 76    
Minimum Humidity 23    
Precipitation  
Precipitation 0.00 in - - ()
Sea Level Pressure  
Sea Level Pressure 30.00 in    
Wind  
Wind Speed 10 mph ()    
Max Wind Speed 21 mph    
Max Gust Speed -    
Visibility 6.2 miles    
Events      
Averages and records for this station are not official NWS values.
T = Trace of Precipitation, MM = Missing Value Source: Averaged Metar Reports

Daily Weather History Graph

Daily Weather History Graph

Search for Another Location

Airport:

Trip Planner

Search our weather history database for the weather conditions in past years. The results will help you decide how hot, cold, wet, or windy it might be!

Date:

Astronomy

Feb. 14, 2013 Rise Set
Actual Time 6:28 AM EET 5:17 PM EET
Civil Twilight 6:01 AM EET 5:43 PM EET
Nautical Twilight 5:31 AM EET 6:14 PM EET
Astronomical Twilight 5:00 AM EET 6:44 PM EET
Moon 8:26 AM EET (2/14) 9:51 PM EET (2/14)
Length of Visible Light 11h 42m
Length of Day
10h 49m
Waxing Crescent, 19% of the Moon is Illuminated
Feb 14
Waxing Crescent
Feb 17
First Quarter
Feb 25
Full
Mar 4
Last Quarter
Mar 11
New

Hourly Weather History & Observations

Time (EET) Temp. Windchill Dew Point Humidity Pressure Visibility Wind Dir Wind Speed Gust Speed Precip Events Conditions
12:20 AM 46.4 °F - 39.2 °F 76% 30.12 in - NNE 2.3 mph - N/A   Clear
12:50 AM 46.4 °F 45.2 °F 39.2 °F 76% 30.12 in - NNE 3.5 mph - N/A   Clear
1:20 AM 46.4 °F 42.4 °F 39.2 °F 76% 30.12 in - NE 8.1 mph - N/A   Clear
1:50 AM 46.4 °F 42.4 °F 39.2 °F 76% 30.12 in - NE 8.1 mph - N/A   Clear
2:00 AM 47 °F - 39 °F 65% 30.12 in 6 mi NE 8.1 mph - -  
2:20 AM 48.2 °F - 37.4 °F 66% 30.12 in - NE 6.9 mph - N/A   Clear
2:50 AM 48.2 °F - 37.4 °F 66% 30.12 in - NNE 5.8 mph - N/A   Clear
3:20 AM 48.2 °F - 37.4 °F 66% 30.09 in - NNE 10.4 mph - N/A   Clear
3:50 AM 50.0 °F - 37.4 °F 62% 30.06 in - NNE 10.4 mph - N/A   Clear
4:20 AM 50.0 °F - 37.4 °F 62% 30.06 in - NNE 1.2 mph - N/A   Clear
4:50 AM 50.0 °F - 35.6 °F 58% 30.06 in - NNE 12.7 mph - N/A   Clear
5:20 AM 50.0 °F - 35.6 °F 58% 30.06 in - NNE 12.7 mph - N/A   Clear
5:50 AM 50.0 °F - 35.6 °F 58% 30.06 in - NE 13.8 mph - N/A   Clear
6:20 AM 51.8 °F - 33.8 °F 50% 30.06 in - NE 13.8 mph - N/A   Clear
6:50 AM 50.0 °F - 33.8 °F 54% 30.06 in - NE 12.7 mph - N/A   Clear
7:20 AM 51.8 °F - 33.8 °F 50% 30.06 in - NE 13.8 mph - N/A   Clear
7:50 AM 55.4 °F - 35.6 °F 47% 30.06 in - NE 15.0 mph - N/A   Clear
8:00 AM 55 °F - 35 °F 34% 30.07 in 6 mi NE 15.0 mph - -   Partly Cloudy
8:20 AM 57.2 °F - 35.6 °F 44% 30.06 in - NE 15.0 mph - N/A   Clear
8:50 AM 57.2 °F - 35.6 °F 44% 30.06 in 6.2 mi NE 17.3 mph - N/A   Mostly Cloudy
9:20 AM 59.0 °F - 35.6 °F 42% 30.06 in 6.2 mi NE 18.4 mph - N/A   Mostly Cloudy
9:50 AM 59.0 °F - 37.4 °F 45% 30.06 in 6.2 mi NE 16.1 mph - N/A   Mostly Cloudy
10:20 AM 62.6 °F - 39.2 °F 42% 30.06 in 6.2 mi NE 18.4 mph - N/A   Scattered Clouds
10:50 AM 62.6 °F - 39.2 °F 42% 30.04 in 6.2 mi NE 17.3 mph - N/A   Scattered Clouds
11:20 AM 64.4 °F - 41.0 °F 42% 30.04 in 6.2 mi NE 20.7 mph - N/A   Scattered Clouds
11:50 AM 64.4 °F - 41.0 °F 42% 30.01 in 6.2 mi NE 17.3 mph - N/A   Scattered Clouds
12:20 PM 66.2 °F - 41.0 °F 40% 30.01 in 6.2 mi NE 13.8 mph - N/A   Scattered Clouds
12:50 PM 66.2 °F - 39.2 °F 37% 30.01 in 6.2 mi NE 15.0 mph - N/A   Scattered Clouds
1:20 PM 66.2 °F - 39.2 °F 37% 29.98 in 6.2 mi ENE 13.8 mph - N/A   Scattered Clouds
1:50 PM 66.2 °F - 37.4 °F 35% 29.98 in 6.2 mi NE 16.1 mph - N/A   Partly Cloudy
2:00 PM 67 °F - 38 °F 23% 29.97 in 6 mi NE 16.1 mph - -   Scattered Clouds
2:20 PM 66.2 °F - 37.4 °F 35% 29.95 in 6.2 mi ENE 16.1 mph - N/A   Partly Cloudy
2:50 PM 66.2 °F - 39.2 °F 37% 29.92 in 6.2 mi NE 18.4 mph - N/A   Partly Cloudy
3:20 PM 66.2 °F - 39.2 °F 37% 29.92 in 6.2 mi NE 16.1 mph - N/A   Partly Cloudy
3:50 PM 66.2 °F - 41.0 °F 40% 29.92 in 6.2 mi NE 15.0 mph - N/A   Partly Cloudy
4:20 PM 64.4 °F - 42.8 °F 45% 29.92 in 6.2 mi NE 15.0 mph - N/A   Partly Cloudy
4:50 PM 60.8 °F - 42.8 °F 52% 29.92 in 6.2 mi NE 11.5 mph - N/A   Partly Cloudy
5:20 PM 57.2 °F - 42.8 °F 59% 29.92 in 6.2 mi NE 9.2 mph - N/A   Scattered Clouds
5:50 PM 57.2 °F - 42.8 °F 59% 29.92 in 6.2 mi NNE 11.5 mph - N/A   Scattered Clouds
6:20 PM 55.4 °F - 41.0 °F 58% 29.92 in 6.2 mi NE 12.7 mph - N/A   Scattered Clouds
6:50 PM 57.2 °F - 41.0 °F 55% 29.92 in 6.2 mi NE 12.7 mph - N/A   Scattered Clouds
7:20 PM 55.4 °F - 41.0 °F 58% 29.92 in 6.2 mi NE 13.8 mph - N/A   Scattered Clouds
7:50 PM 55.4 °F - 41.0 °F 58% 29.92 in 6.2 mi NE 10.4 mph - N/A   Mostly Cloudy
8:00 PM 56 °F - 40 °F 45% 29.93 in 6 mi NE 10.4 mph - -   Partly Cloudy
8:20 PM 55.4 °F - 41.0 °F 58% 29.92 in 6.2 mi NNE 13.8 mph - N/A   Mostly Cloudy
8:50 PM 57.2 °F - 39.2 °F 51% 29.92 in 6.2 mi NNE 12.7 mph - N/A   Mostly Cloudy
9:20 PM 57.2 °F - 39.2 °F 51% 29.92 in 6.2 mi NNE 15.0 mph - N/A   Mostly Cloudy
9:50 PM 57.2 °F - 39.2 °F 51% 29.92 in 6.2 mi NE 15.0 mph - N/A   Mostly Cloudy
10:20 PM 57.2 °F - 39.2 °F 51% 29.92 in 6.2 mi NE 13.8 mph - N/A   Mostly Cloudy
10:50 PM 55.4 °F - 41.0 °F 58% 29.92 in 6.2 mi NE 12.7 mph - N/A   Mostly Cloudy
11:20 PM 55.4 °F - 41.0 °F 58% 29.92 in 6.2 mi NE 12.7 mph - N/A   Mostly Cloudy
11:50 PM 55.4 °F - 41.0 °F 58% 29.92 in 6.2 mi NE 12.7 mph - N/A   Mostly Cloudy